EGVO

RAF Odiham

Airport
ICAO code
EGVO
IATA Code
ODH
Summary
ICAO Region
EUR
ICAO Territory
Location

, England

Serving
Odiham
Elevation
405 ft
Coordinates
51° 14' 3" N , 0° 56' 34" W
Metar
EGVO 221020Z 22015KT 9999 -RA BKN012 BKN020 19/16 Q1014 BECMG SCT020 BKN025 RMK GRN BECMG WHT

Runways

Designator Length Width Surface Rops
10/28 1838 43 ASP No/No

Airport map

Aerial View

SKYbrary Partners:

Safety knowledge contributed by: